Home > Time Zones > World Clock > Weather > Macau > Macau > Past weeks

Flag for Macau Weather past 2 weeks in Macau, Macau

Now
61 °F

Scattered clouds.


Feels Like: 61 °F
Forecast: 58 / 65 °F
Wind: 13 mph from Northeast

Location: Taipa

Current Time: Jan 31, 2015 at 6:25:49 PM

Latest Report: Jan 31, 2015 at 6:00 PM


Visibility: 5 mi

Pressure: 30.24 "Hg

Humidity: 72%

Dew point: 52 °F

Location of MacauLocation

Historic Weather in Macau — Graph

°F

Macau temperature yesterday

Maximum temperature yesterday: 64 °F (at 4:30 PM)
Minimum temperature yesterday: 57 °F (at 10:00 PM)
Average temperature yesterday: 61 °F

Past Weeks' High & Low Weather Summary

 TemperatureHumidityPressure
High70 °F (Jan 26, 12:30 PM)100% (Jan 27, 7:30 AM)30.33 "Hg (Jan 27, 7:30 AM)
Low52 °F (Jan 23, 3:00 AM)43% (Jan 19, 2:00 PM)29.98 "Hg (Jan 27, 3:30 PM)
Average62 °F76%30.13 "Hg
* Reported Jan 16 5:00 PM — Jan 31 5:30 PM, Macau, Weather by CustomWeather, © 2014

Note: Actual official high and low records may vary slightly from our data, if they occured in-between our weather recording intervals... More about our weather records

Advertising

Macau weather history for previous 24 hours

 ConditionsComfort  
Time TempWeatherWind HumidityBarometerVisibility
5:30 PM
Jan 31
61 °FScattered clouds.12 mph72%30.24 "Hg5 mi
5:00 PM61 °FScattered clouds.10 mph72%30.24 "Hg5 mi
4:30 PM61 °FScattered clouds.10 mph72%30.24 "Hg5 mi
4:00 PM61 °FScattered clouds.12 mph72%30.24 "Hg5 mi
3:30 PM61 °FScattered clouds.12 mph72%30.24 "Hg5 mi
3:00 PM61 °FScattered clouds.13 mph72%30.24 "Hg5 mi
2:30 PM61 °FScattered clouds.12 mph72%30.27 "Hg5 mi
2:00 PM61 °FScattered clouds.12 mph72%30.27 "Hg5 mi
1:30 PM59 °FScattered clouds.14 mph72%30.30 "Hg5 mi
1:00 PM59 °FScattered clouds.13 mph72%30.30 "Hg5 mi
12:30 PM59 °FScattered clouds.14 mph72%30.33 "Hg5 mi
12:00 PM57 °FScattered clouds.14 mph77%30.33 "Hg5 mi
11:00 AM59 °FScattered clouds.15 mph72%30.33 "Hg6 mi
10:30 AM57 °FScattered clouds.17 mph77%30.33 "Hg6 mi
10:00 AM57 °FScattered clouds.17 mph77%30.33 "Hg6 mi
9:30 AM57 °FScattered clouds.16 mph77%30.33 "Hg6 mi
9:00 AM57 °FScattered clouds.17 mph77%30.30 "Hg6 mi
8:30 AM57 °FScattered clouds.17 mph72%30.30 "Hg6 mi
8:00 AM57 °FScattered clouds.18 mph72%30.27 "Hg6 mi
7:30 AM57 °FScattered clouds.17 mph72%30.27 "Hg6 mi
7:00 AM57 °FPassing clouds.17 mph72%30.24 "HgN/A
6:30 AM57 °FPassing clouds.17 mph77%30.24 "HgN/A
6:00 AM57 °FPassing clouds.16 mph72%30.24 "HgN/A
5:00 AM57 °FPassing clouds.16 mph77%30.21 "HgN/A
4:30 AM57 °FPassing clouds.16 mph72%30.21 "HgN/A
4:00 AM57 °FPassing clouds.15 mph72%30.21 "HgN/A
3:30 AM57 °FPassing clouds.12 mph72%30.21 "HgN/A
3:00 AM57 °FPassing clouds.13 mph67%30.21 "HgN/A
2:30 AM57 °FPassing clouds.12 mph67%30.21 "HgN/A
2:00 AM57 °FPassing clouds.12 mph72%30.21 "HgN/A
1:30 AM57 °FPassing clouds.10 mph72%30.21 "HgN/A
1:00 AM57 °FPassing clouds.8 mph72%30.21 "HgN/A
12:30 AM55 °FClear.6 mph72%30.21 "Hg10 mi
12:00 AM55 °FClear.8 mph72%30.21 "Hg10 mi
11:30 PM
Jan 30
57 °FClear.9 mph67%30.21 "Hg10 mi
11:00 PM57 °FClear.12 mph67%30.21 "Hg10 mi
10:30 PM57 °FClear.12 mph67%30.21 "Hg10 mi
10:00 PM57 °FClear.12 mph67%30.21 "Hg10 mi
9:30 PM59 °FClear.12 mph68%30.21 "Hg10 mi
9:00 PM59 °FClear.13 mph72%30.21 "Hg6 mi
8:30 PM59 °FClear.12 mph72%30.21 "Hg6 mi
8:00 PM59 °FClear.9 mph72%30.18 "Hg6 mi
7:30 PM61 °FClear.10 mph68%30.18 "Hg6 mi
7:00 PM63 °FClear.9 mph68%30.18 "Hg5 mi
6:30 PM63 °FClear.12 mph73%30.15 "Hg4 mi
6:00 PM63 °FClear.10 mph73%30.15 "Hg4 mi
Weather by CustomWeather, © 2014

See weather overviewHow to use our weather pages